Location: Il Ritiro
(43.4167°N, 13.1333°E)
Time: 08:12:15
(UTC+00:00)

Cosmos 1408 - Pass Details

Date: 05 July 2020
Orbit: 470 x 493 km, 82.6° (Epoch: 06 August)

Event Time Altitude Azimuth Distance (km) Brightness Sun altitude
Exits shadow 21:28:55 35° 80° (E) 784 3.4 -19.8°
Drops below altitude 10° 21:31:56 10° 25° (NNE) 1,643 5.8 -20.0°
Sets 21:34:07 0° 17° (NNE) 2,525 7.0 -20.2°
